| time (UTC) | temp F | wind direction | speed MPH | gust MPH | rain 1hr in | rain 24hr in | rain mn in | humidity % | barometer mb |
| 20260903063103 | 65 | 0 | 0.0 | 0.0 | 0.00 | 0.00 | 0.00 | 65 | 1027.0 |
| 20260903061602 | 65 | 0 | 0.0 | 0.0 | 0.00 | 0.00 | 0.00 | 64 | 1027.1 |
| 20260903060122 | 66 | 0 | 0.0 | 0.0 | 0.00 | 0.00 | 0.00 | 63 | 1026.8 |
| 20260903054600 | 66 | 0 | 0.0 | 0.0 | 0.00 | 0.00 | 0.00 | 63 | 1027.1 |
| 20260903053105 | 66 | 0 | 0.0 | 0.0 | 0.00 | 0.00 | 0.00 | 63 | 1027.0 |
| 20260903051607 | 66 | 0 | 0.0 | 0.0 | 0.00 | 0.00 | 0.00 | 64 | 1027.0 |
| 20260903050056 | 67 | 160 | 1.0 | 3.0 | 0.00 | 0.00 | 0.00 | 65 | 1027.0 |
| 20260903044602 | 67 | 117 | 0.0 | 2.0 | 0.00 | 0.00 | 0.00 | 64 | 1026.6 |
| 20260903043104 | 67 | 0 | 0.0 | 0.0 | 0.00 | 0.00 | 0.00 | 59 | 1027.7 |
| 20260903041559 | 67 | 0 | 0.0 | 0.0 | 0.00 | 0.00 | 0.00 | 58 | 1027.3 |
| 20260903040058 | 68 | 0 | 0.0 | 0.0 | 0.00 | 0.00 | 0.00 | 58 | 1027.3 |
| 20260903034554 | 69 | 0 | 0.0 | 0.0 | 0.00 | 0.00 | 0.00 | 57 | 1027.4 |
| 20260903033103 | 69 | 0 | 0.0 | 0.0 | 0.00 | 0.00 | 0.00 | 56 | 1027.3 |
| 20260903031556 | 71 | 0 | 0.0 | 0.0 | 0.00 | 0.00 | 0.00 | 55 | 1027.2 |
| 20260903030055 | 72 | 0 | 0.0 | 0.0 | 0.00 | 0.00 | 0.00 | 54 | 1027.0 |
| 20260903024559 | 74 | 0 | 0.0 | 0.0 | 0.00 | 0.00 | 0.00 | 52 | 1027.4 |
| 20260903023106 | 75 | 0 | 0.0 | 3.0 | 0.00 | 0.00 | 0.00 | 46 | 1027.2 |
| 20260903021557 | 75 | 0 | 0.0 | 2.0 | 0.00 | 0.00 | 0.00 | 40 | 1026.1 |
| 20260903014615 | 76 | 0 | 0.0 | 4.0 | 0.00 | 0.00 | 0.00 | 37 | 1025.5 |
| 20260903013115 | 77 | 0 | 0.0 | 3.0 | 0.00 | 0.00 | 0.00 | 36 | 1025.3 |
| 20260903011607 | 78 | 0 | 0.0 | 3.0 | 0.00 | 0.00 | 0.00 | 35 | 1025.4 |
| 20260903010052 | 78 | 284 | 0.0 | 3.0 | 0.00 | 0.00 | 0.00 | 33 | 1025.3 |
| 20260903004551 | 79 | 0 | 0.0 | 0.0 | 0.00 | 0.00 | 0.00 | 34 | 1025.2 |
| 20260903003058 | 81 | 0 | 0.0 | 4.0 | 0.00 | 0.00 | 0.00 | 31 | 1025.0 |
| 20260903001555 | 82 | 291 | 0.0 | 5.0 | 0.00 | 0.00 | 0.00 | 30 | 1025.1 |
| 20260903000107 | 83 | 0 | 2.0 | 8.0 | 0.00 | 0.00 | 0.00 | 28 | 1025.0 |
| 20260902234604 | 85 | 281 | 0.0 | 4.0 | 0.00 | 0.00 | 0.00 | 27 | 1025.0 |
| 20260902233105 | 83 | 0 | 1.0 | 11.0 | 0.00 | 0.00 | 0.00 | 29 | 1025.2 |
| 20260902231557 | 85 | 247 | 3.0 | 10.0 | 0.00 | 0.00 | 0.00 | 28 | 1025.2 |
| 20260902230108 | 85 | 293 | 2.0 | 8.0 | 0.00 | 0.00 | 0.00 | 27 | 1025.2 |
| 20260902224610 | 85 | 0 | 0.0 | 0.0 | 0.00 | 0.00 | 0.00 | 26 | 1025.2 |
| 20260902223124 | 85 | 0 | 0.0 | 0.0 | 0.00 | 0.00 | 0.00 | 25 | 1025.2 |
| 20260902221607 | 87 | 0 | 0.0 | 3.0 | 0.00 | 0.00 | 0.00 | 24 | 1024.9 |
| 20260902220110 | 88 | 133 | 1.0 | 7.0 | 0.00 | 0.00 | 0.00 | 24 | 1025.0 |
| 20260902214612 | 88 | 0 | 3.0 | 7.0 | 0.00 | 0.00 | 0.00 | 22 | 1025.3 |
| 20260902213059 | 87 | 0 | 1.0 | 5.0 | 0.00 | 0.00 | 0.00 | 23 | 1025.5 |
| 20260902211605 | 86 | 96 | 0.0 | 3.0 | 0.00 | 0.00 | 0.00 | 25 | 1025.6 |
| 20260902210103 | 89 | 142 | 1.0 | 10.0 | 0.00 | 0.00 | 0.00 | 22 | 1026.0 |
| 20260902204603 | 89 | 335 | 1.0 | 8.0 | 0.00 | 0.00 | 0.00 | 23 | 1026.2 |
| 20260902203058 | 87 | 0 | 1.0 | 7.0 | 0.00 | 0.00 | 0.00 | 22 | 1026.3 |
| 20260902201554 | 89 | 0 | 0.0 | 8.0 | 0.00 | 0.00 | 0.00 | 23 | 1026.5 |
| 20260902194603 | 88 | 128 | 1.0 | 8.0 | 0.00 | 0.00 | 0.00 | 22 | 1026.9 |
| 20260902193059 | 87 | 175 | 2.0 | 6.0 | 0.00 | 0.00 | 0.00 | 23 | 1027.2 |
| 20260902191556 | 87 | 0 | 2.0 | 11.0 | 0.00 | 0.00 | 0.00 | 25 | 1027.5 |
| 20260902190106 | 88 | 72 | 2.0 | 7.0 | 0.00 | 0.00 | 0.00 | 25 | 1027.8 |
| 20260902184605 | 86 | 352 | 2.0 | 8.0 | 0.00 | 0.00 | 0.00 | 26 | 1027.9 |
| 20260902183106 | 85 | 288 | 2.0 | 7.0 | 0.00 | 0.00 | 0.00 | 26 | 1028.1 |
| 20260902181557 | 84 | 17 | 1.0 | 7.0 | 0.00 | 0.00 | 0.00 | 26 | 1028.5 |
| 20260902180057 | 85 | 101 | 2.0 | 10.0 | 0.00 | 0.00 | 0.00 | 28 | 1028.6 |
| 20260902174604 | 83 | 88 | 1.0 | 7.0 | 0.00 | 0.00 | 0.00 | 28 | 1029.1 |
| 20260902173134 | 83 | 57 | 1.0 | 7.0 | 0.00 | 0.00 | 0.00 | 29 | 1029.3 |
| 20260902171610 | 82 | 0 | 3.0 | 7.0 | 0.00 | 0.00 | 0.00 | 29 | 1029.2 |
| 20260902170058 | 81 | 113 | 0.0 | 6.0 | 0.00 | 0.00 | 0.00 | 31 | 1029.4 |
| 20260902164557 | 80 | 131 | 0.0 | 6.0 | 0.00 | 0.00 | 0.00 | 34 | 1029.4 |
| 20260902163058 | 80 | 154 | 1.0 | 8.0 | 0.00 | 0.00 | 0.00 | 36 | 1029.6 |
| 20260902161556 | 78 | 298 | 1.0 | 4.0 | 0.00 | 0.00 | 0.00 | 38 | 1029.4 |
| 20260902160106 | 77 | 152 | 1.0 | 5.0 | 0.00 | 0.00 | 0.00 | 39 | 1029.5 |
| 20260902154559 | 76 | 0 | 0.0 | 4.0 | 0.00 | 0.01 | 0.00 | 40 | 1029.6 |
| 20260902153103 | 75 | 0 | 2.0 | 5.0 | 0.00 | 0.01 | 0.00 | 43 | 1029.7 |
| 20260902151607 | 73 | 81 | 0.0 | 6.0 | 0.00 | 0.01 | 0.00 | 47 | 1029.5 |
| 20260902150100 | 71 | 134 | 1.0 | 6.0 | 0.00 | 0.01 | 0.00 | 49 | 1029.6 |
| 20260902144556 | 68 | 0 | 0.0 | 2.0 | 0.00 | 0.01 | 0.00 | 51 | 1029.5 |
| 20260902143057 | 67 | 0 | 0.0 | 0.0 | 0.00 | 0.01 | 0.00 | 55 | 1029.5 |
| 20260902141610 | 64 | 0 | 0.0 | 0.0 | 0.00 | 0.01 | 0.00 | 61 | 1029.6 |
| 20260902140059 | 61 | 0 | 0.0 | 0.0 | 0.00 | 0.01 | 0.00 | 66 | 1029.6 |
| 20260902134600 | 58 | 0 | 0.0 | 0.0 | 0.00 | 0.01 | 0.00 | 67 | 1029.6 |
| 20260902133057 | 57 | 0 | 0.0 | 0.0 | 0.00 | 0.01 | 0.00 | 66 | 1029.5 |
| 20260902131625 | 57 | 0 | 0.0 | 0.0 | 0.00 | 0.01 | 0.00 | 66 | 1029.2 |
| 20260902130103 | 57 | 0 | 0.0 | 0.0 | 0.00 | 0.01 | 0.00 | 65 | 1029.1 |
| 20260902124608 | 57 | 0 | 0.0 | 0.0 | 0.00 | 0.01 | 0.00 | 65 | 1028.8 |
| 20260902123138 | 58 | 0 | 0.0 | 3.0 | 0.00 | 0.01 | 0.00 | 65 | 1028.9 |
| 20260902121554 | 58 | 0 | 1.0 | 4.0 | 0.00 | 0.01 | 0.00 | 65 | 1028.6 |
| 20260902114557 | 59 | 0 | 0.0 | 0.0 | 0.00 | 0.01 | 0.00 | 62 | 1028.5 |
| 20260902113055 | 60 | 0 | 0.0 | 0.0 | 0.00 | 0.01 | 0.00 | 60 | 1028.3 |
| 20260902111554 | 60 | 0 | 0.0 | 0.0 | 0.00 | 0.01 | 0.00 | 59 | 1028.4 |
| 20260902110058 | 61 | 0 | 0.0 | 0.0 | 0.00 | 0.01 | 0.00 | 58 | 1028.4 |
| 20260902104557 | 61 | 0 | 0.0 | 0.0 | 0.00 | 0.01 | 0.00 | 56 | 1028.2 |
| 20260902103056 | 61 | 0 | 0.0 | 0.0 | 0.00 | 0.01 | 0.00 | 56 | 1028.1 |
| 20260902101555 | 62 | 0 | 0.0 | 0.0 | 0.00 | 0.01 | 0.00 | 57 | 1028.2 |
| 20260902100058 | 62 | 0 | 0.0 | 0.0 | 0.00 | 0.01 | 0.00 | 57 | 1028.2 |
| 20260902094558 | 62 | 0 | 0.0 | 0.0 | 0.00 | 0.01 | 0.00 | 57 | 1028.1 |
| 20260902093054 | 62 | 0 | 0.0 | 0.0 | 0.00 | 0.01 | 0.00 | 55 | 1028.2 |
| 20260902091614 | 62 | 0 | 0.0 | 0.0 | 0.00 | 0.01 | 0.00 | 55 | 1028.4 |
| 20260902090055 | 62 | 0 | 0.0 | 0.0 | 0.00 | 0.01 | 0.00 | 54 | 1028.3 |
| 20260902084552 | 63 | 0 | 0.0 | 0.0 | 0.00 | 0.01 | 0.00 | 53 | 1028.3 |
| 20260902083101 | 64 | 0 | 0.0 | 0.0 | 0.00 | 0.01 | 0.00 | 52 | 1028.4 |
| 20260902081559 | 64 | 0 | 0.0 | 0.0 | 0.00 | 0.01 | 0.00 | 50 | 1028.2 |
| 20260902080054 | 65 | 0 | 0.0 | 0.0 | 0.00 | 0.01 | 0.00 | 48 | 1028.4 |
| 20260902074552 | 66 | 0 | 0.0 | 0.0 | 0.00 | 0.01 | 0.00 | 48 | 1028.4 |
| 20260902073103 | 66 | 0 | 0.0 | 0.0 | 0.00 | 0.01 | 0.00 | 46 | 1028.5 |
| 20260902071553 | 67 | 0 | 0.0 | 0.0 | 0.00 | 0.01 | 0.00 | 45 | 1028.4 |
| 20260902070109 | 68 | 0 | 0.0 | 1.0 | 0.00 | 0.01 | 0.00 | 44 | 1028.2 |
| 20260902064603 | 69 | 0 | 0.0 | 4.0 | 0.00 | 0.03 | 0.00 | 44 | 1028.2 |